Weather in Istok

Russia / Sverdlovsk Oblast     56°47′09″N   60°53′09″E
temp.,
°C
wind,
m/s
gust,
m/s
humid.,
%
clouds,
%
prec.,
mm/h
press.,
hPa
HPBL,
m
5 august, thu
thu523:00+20sse398471 0.1 1012179
02:00+17s22915 1.3 101033
05:00+18wnw228997 1.3 101015
08:00+22sse017831 0.0 1009104
11:00+29s234761 0.0 1008666
14:00+32s123581 0.0 10071383
17:00+31w663475 0.0 10071799
20:00+24wnw23607 0.0 100655
6 august, fri
fri623:00+20wnw41079100 0.0 1008431
02:00+17wnw499764 1.9 1008361
05:00+15wnw5889100 2.4 1008566
08:00+16nw4779100 0.0 1009860
11:00+17wnw5876100 0.0 1009914
14:00+18nw4972100 0.0 1010807
17:00+19nnw4106991 0.1 1010758
20:00+18nnw4106785 0.0 1011798
7 august, sat
sat723:00+16nw41074100 0.1 1011481
02:00+15nw3975100 0.0 1012421
05:00+12wnw39831 0.0 1012238
08:00+16nw49610 0.0 1013587
11:00+20nw57410 0.0 10121412
14:00+22nw57351 0.0 10121828
17:00+22nw57380 0.0 10122100
20:00+17nnw5106388 0.0 1014785
8 august, sun
sun823:00+13nw38802 0.0 1015309
02:00+12nw4108013 0.0 1014443
05:00+10nw410890 0.0 1015447
08:00+13nw58741 0.0 1016468
11:00+18nw465543 0.0 10151013
14:00+20nnw575198 0.0 10151306
17:00+22n475125 0.0 10161448
20:00+18ne247433 0.0 1017119
9 august, mon
mon923:00+14nw238814 0.0 101864
02:00+13nw39873 0.0 1018199
05:00+11wnw27935 0.0 1019145
08:00+16nw237287 0.0 1019318
11:00+20wnw2256100 0.0 1018884
14:00+24nnw344241 0.0 10181449
17:00+24nnw4635100 0.0 10181661
20:00+19n2262100 0.0 101814